Lexington Weather

Lexington, Massachusetts, USA

34°F
4/16/2021 11:28am 
  • Lexington Conditions: Light snow, Mist, Overcast
  • Temperature: 34.0°F / 1.1°C 
  • Dew Point: 32.9°FIncreased 0.2°Fsince last hour.
  • Relative Humidity: 96%Increased 1.0% since last hour.
  • Wind: Wind from N N 3 mph, 10-min avg: 1 mph, gust: 5 mph
  • Barometer: 29.45 inFalling 0.03  inHg/hr Falling Slowly
  • Visibility: ¾ mile
  • Snow Today: 1.7 in
  •   

Regional Weather Roundup
for Boston / Norton, MA

        
000
ASUS41 KBOX 150304
RWRBOX

REGIONAL WEATHER ROUNDUP
NATIONAL WEATHER SERVICE BOSTON/NORTON MA
1100 PM EDT WED APR 14 2021

NOTE:  "FAIR" INDICATES FEW OR NO CLOUDS BELOW 12,000 FEET WITH NO 
SIGNIFICANT WEATHER AND/OR OBSTRUCTIONS TO VISIBILITY.

MAZALL-150400-
EASTERN MASSACHUSETTS
  
CITY           SKY/WX    TMP DP  RH WIND       PRES   REMARKS
BOSTON         CLOUDY    48  39  71 S8        29.96S                  
BEVERLY        NOT AVBL                                               
LAWRENCE       CLOUDY    47  37  68 SE5       29.96F                  
BEDFORD        PTCLDY    49  38  65 VRB3      29.93F                  
BLUE HILL        N/A     45  38  76 SE12      29.93S                  
NORWOOD        CLOUDY    49  38  65 S6        29.95F                  
MARSHFIELD     CLOUDY    45  41  87 S5        29.96F                  
PLYMOUTH       CLOUDY    41  38  89 CALM      29.95F                  
TAUNTON          N/A    N/A N/A N/A MISG      29.95F                  
NEW BEDFORD    CLOUDY    46  42  86 SE7       29.96S                  
$$

MAZALL-150400-
CAPE COD AND THE ISLANDS
  
CITY           SKY/WX    TMP DP  RH WIND       PRES   REMARKS
FALMOUTH       PTCLDY    43  39  87 SE5       29.96F                  
HYANNIS        CLOUDY    39  35  86 CALM      29.95F                  
CHATHAM        CLEAR     40  36  86 CALM      29.99F                  
PROVINCETOWN   CLEAR     41  39  93 S3          N/A                   
NANTUCKET      CLEAR     40  36  86 E8        29.97F                  
MARTHAS VNYRD  PTCLDY    42  39  89 SE3       29.96F                  
$$
 
MAZALL-150400-
CENTRAL AND WESTERN MASSACHUSETTS
  
CITY           SKY/WX    TMP DP  RH WIND       PRES   REMARKS
WORCESTER      CLOUDY    47  38  71 S8        29.92S                  
FITCHBURG      MOCLDY    50  40  68 SE7       29.93F                  
ORANGE         CLOUDY    54  42  64 S7        29.90F                  
SPRINGFIELD    MOCLDY    53  41  65 SE5       29.89S                  
WESTFIELD      CLOUDY    52  43  71 S7        29.89S                  
NORTH ADAMS    CLOUDY    61  42  49 E12       29.84F                  
PITTSFIELD     PTCLDY    56  43  61 W3        29.84F                  
$$
 
RIZALL-150400-
RHODE ISLAND
  
CITY           SKY/WX    TMP DP  RH WIND       PRES   REMARKS
PROVIDENCE     NOT AVBL                                               
NEWPORT        CLOUDY    45  42  89 SE9       29.95S                  
BLOCK ISLAND   PTCLDY    44  39  82 SE9       29.94F                  
SMITHFIELD     CLOUDY    44  39  82 S5        29.94F                  
WESTERLY       PTCLDY    44  41  89 E8        29.94F                  
$$
 
CTZALL-150400-
CONNECTICUT
  
CITY           SKY/WX    TMP DP  RH WIND       PRES   REMARKS
BRADLEY INTL   CLOUDY    52  42  69 S12       29.90S                  
HARTFORD       CLOUDY    51  43  74 SE5       29.91S                  
BRIDGEPORT     CLOUDY    49  46  90 NE12      29.90F                  
DANBURY        CLOUDY    57  45  64 SE3       29.88F                  
GROTON         MOCLDY    47  42  83 E9        29.93F                  
NEW HAVEN      CLOUDY    50  47  89 E9        29.91S                  
CHESTER        CLOUDY    46  45  93 E6        29.92S FOG              
MERIDEN        MOCLDY    49  43  80 SE5       29.91F                  
WILLIMANTIC    CLOUDY    47  40  76 CALM      29.93F                  
OXFORD         MOCLDY    47  47 100 SE6       29.90F                  
$$

MEZ002-015-021-024-NHZ003-005-008-011-012-014-VTZ005-008-150400-
NORTHERN NEW ENGLAND
  
CITY           SKY/WX    TMP DP  RH WIND       PRES   REMARKS
PORTLAND ME    CLOUDY    43  40  89 S5        29.97S                  
BANGOR ME      CLEAR     43  31  62 S5        29.94S                  
CONCORD NH     LGT RAIN  46  38  73 S9        29.94S                  
MANCHESTER NH  CLOUDY    47  37  68 E3        29.93S                  
NASHUA NH      CLOUDY    48  35  60 SE5       29.94F                  
PORTSMOUTH NH  PTCLDY    41  35  78 CALM      29.97S                  
JAFFREY NH     PTCLDY    45  39  79 CALM      29.91F                  
KEENE NH       PTCLDY    51  40  65 S5        29.89F                  
BURLINGTON VT  MOCLDY    57  40  52 CALM      29.84F                  
MT. WASHINGTON MOCLDY    34  25  69 W3          N/A                   
$$

NYZ052-076-150400-
EASTERN NEW YORK
  
CITY           SKY/WX    TMP DP  RH WIND       PRES   REMARKS
ALBANY         MOCLDY    57  42  57 CALM      29.83F                  
NEW YORK CITY  CLOUDY    61  49  64 SW13      29.87F                  
$$
 
ANZALL-150400-
MARINE OBSERVATIONS
  
STATION/POSITION TIME  TEMP    WIND        PRES    VSBY  WAVE
                       AIR SEA DIR/SP/G                  HT/PER
                 (UTC) (F)     (DEG/KT/KT) (MB)    (MI)  (FT/S)
BOSTON BUOY      0240   45 44  150/ 10/ 12 1015.2F
BUZZARDS BAY     0200          130/ 12/ 13 1015.4F
NANTUCKET SOUND  0240      47                N/A
MASS BAY-STELLWA 0204   46     170/ 10/ 10 1013.9F  1 7/8  5/11
ISLE OF SHOALS   0200   45     200/  8/  8 1014.3S
S OF BLOCK IS    0226      45                N/A           3/11
$$

......................KEY.........................
  SKY/WX - SKY CONDITION/PRESENT WEATHER
  TMP    - TEMPERATURE IN FAHRENHEIT
  DWPT   - DEWPOINT IN FAHRENHEIT
  RH     - RELATIVE HUMIDITY IN PERCENT
  WIND   - DIRECTION AND SPEED IN MPH
  PRES   - MEAN SEA LEVEL PRESSURE IN INCHES OF HG
  WCI    - WIND CHILL INDEX
  VSB    - VISIBILITY IN MILES
  HX     - HEAT INDEX
  TC     - TEMPERATURE IN CELSIUS
  VRB    - VARIABLE WIND DIRECTION
  N/A    - NOT AVAILABLE
  
      

Other recent Regional Weather Roundups

Fri Apr 16, 11:04am

Fri Apr 16, 10:05am

Fri Apr 16, 9:04am

Fri Apr 16, 8:04am

Fri Apr 16, 7:04am

Fri Apr 16, 6:04am

Fri Apr 16, 5:04am

Fri Apr 16, 4:04am

Fri Apr 16, 3:04am

Fri Apr 16, 2:04am

Fri Apr 16, 1:04am

Fri Apr 16, 12:04am

Thu Apr 15, 11:05pm

Thu Apr 15, 10:04pm

Thu Apr 15, 9:04pm

Thu Apr 15, 8:04pm

Thu Apr 15, 7:05pm

Thu Apr 15, 6:04pm

Thu Apr 15, 5:05pm

Thu Apr 15, 4:04pm

Thu Apr 15, 3:05pm

Thu Apr 15, 2:04pm

Thu Apr 15, 1:05pm

Thu Apr 15, 12:04pm

Thu Apr 15, 11:04am

Thu Apr 15, 10:05am

Thu Apr 15, 9:04am

Thu Apr 15, 8:04am

Thu Apr 15, 7:04am

Thu Apr 15, 6:04am

Thu Apr 15, 5:04am

Thu Apr 15, 4:04am

Thu Apr 15, 3:04am

Thu Apr 15, 2:04am

Thu Apr 15, 1:04am

Thu Apr 15, 12:04am

Wed Apr 14, 10:04pm

Wed Apr 14, 9:04pm

Wed Apr 14, 8:04pm

Wed Apr 14, 7:04pm

Wed Apr 14, 6:04pm

Wed Apr 14, 5:05pm

Wed Apr 14, 4:04pm

Wed Apr 14, 3:05pm

Wed Apr 14, 2:04pm

Wed Apr 14, 1:05pm

Wed Apr 14, 12:04pm

Wed Apr 14, 11:04am

Wed Apr 14, 10:04am

Wed Apr 14, 9:04am

Wed Apr 14, 8:04am

Wed Apr 14, 7:04am

Wed Apr 14, 6:04am

Wed Apr 14, 5:04am

Wed Apr 14, 4:04am

Wed Apr 14, 3:04am

Wed Apr 14, 2:04am

Wed Apr 14, 1:04am

Wed Apr 14, 12:04am

Tue Apr 13, 11:04pm

Tue Apr 13, 10:05pm

Tue Apr 13, 9:05pm

Tue Apr 13, 8:05pm

Tue Apr 13, 7:04pm

Tue Apr 13, 6:04pm

Tue Apr 13, 5:05pm

Tue Apr 13, 4:04pm

Tue Apr 13, 3:04pm

Tue Apr 13, 2:05pm

Tue Apr 13, 1:04pm

Tue Apr 13, 12:05pm

Tue Apr 13, 11:05am

Tue Apr 13, 10:04am

Tue Apr 13, 9:04am

Tue Apr 13, 8:04am

Tue Apr 13, 7:04am

Tue Apr 13, 6:04am

Tue Apr 13, 5:04am

Tue Apr 13, 4:04am

Tue Apr 13, 3:04am

Tue Apr 13, 2:04am

Tue Apr 13, 1:04am

Tue Apr 13, 12:05am

Mon Apr 12, 11:04pm

Mon Apr 12, 10:04pm

Mon Apr 12, 9:04pm

Mon Apr 12, 8:04pm

Mon Apr 12, 7:05pm

Mon Apr 12, 6:04pm

Mon Apr 12, 5:04pm

Mon Apr 12, 4:04pm

Mon Apr 12, 3:05pm

Mon Apr 12, 2:04pm

Mon Apr 12, 1:05pm

Mon Apr 12, 12:04pm

Mon Apr 12, 11:04am

Mon Apr 12, 10:04am

Mon Apr 12, 9:04am

Mon Apr 12, 8:04am

Mon Apr 12, 7:04am

Mon Apr 12, 6:04am

Mon Apr 12, 5:04am

Mon Apr 12, 4:04am

Mon Apr 12, 3:04am

Mon Apr 12, 2:04am

Mon Apr 12, 1:05am

Mon Apr 12, 12:04am

Sun Apr 11, 11:04pm

Sun Apr 11, 10:04pm

Sun Apr 11, 9:04pm

Sun Apr 11, 8:04pm

Sun Apr 11, 7:04pm

Sun Apr 11, 6:05pm

Sun Apr 11, 5:05pm

Sun Apr 11, 4:04pm

Sun Apr 11, 3:05pm

Sun Apr 11, 2:05pm

Sun Apr 11, 1:05pm

Sun Apr 11, 12:04pm

Sun Apr 11, 11:05am

Sun Apr 11, 10:05am

Sun Apr 11, 9:04am

Sun Apr 11, 8:04am

Sun Apr 11, 7:04am

Sun Apr 11, 6:04am

Sun Apr 11, 5:04am

Sun Apr 11, 4:04am

Sun Apr 11, 3:04am

Sun Apr 11, 2:04am

Sun Apr 11, 1:05am

Sun Apr 11, 12:04am

Sat Apr 10, 11:05pm

Sat Apr 10, 10:04pm

Sat Apr 10, 9:04pm

Sat Apr 10, 8:04pm

Sat Apr 10, 7:05pm

Sat Apr 10, 6:04pm

Sat Apr 10, 5:04pm

Sat Apr 10, 4:04pm

Sat Apr 10, 3:04pm

Sat Apr 10, 2:05pm

Sat Apr 10, 1:04pm

Sat Apr 10, 12:04pm

Sat Apr 10, 11:04am

Sat Apr 10, 10:04am

Sat Apr 10, 9:04am

Sat Apr 10, 8:04am

Sat Apr 10, 7:04am

Sat Apr 10, 6:04am

Sat Apr 10, 5:04am

Sat Apr 10, 4:04am

Sat Apr 10, 3:04am

Sat Apr 10, 2:04am

Sat Apr 10, 1:05am

Sat Apr 10, 12:04am

Fri Apr 9, 11:04pm

Fri Apr 9, 10:05pm

Fri Apr 9, 9:04pm

Fri Apr 9, 8:05pm

Fri Apr 9, 7:05pm

Fri Apr 9, 6:04pm

Fri Apr 9, 5:04pm

Fri Apr 9, 4:05pm

Fri Apr 9, 3:05pm

Fri Apr 9, 2:04pm

Fri Apr 9, 1:04pm

Fri Apr 9, 12:04pm

Meta data:

ID: eb0e7d36-d354-4512-8e16-7ac573df04cb
Link: https://api.weather.gov/products/eb0e7d36-d354-4512-8e16-7ac573df04cb